Weather History for Broomfield, CO

Change the Weather History Date:

Friday, January 4, 2013

  Actual Average Record
Temperature  
Mean Temperature 37 °F -  
Max Temperature 48 °F 45 °F 66 °F (2001)
Min Temperature 26 °F 24 °F 3 °F (1993)
Degree Days  
Heating Degree Days 28    
Moisture  
Dew Point 4 °F    
Average Humidity 30    
Maximum Humidity 47    
Minimum Humidity 11    
Precipitation  
Precipitation 0.00 in - - ()
Sea Level Pressure  
Sea Level Pressure 30.08 in    
Wind  
Wind Speed 3 mph (NW)    
Max Wind Speed 13 mph    
Max Gust Speed -    
Visibility 11 miles    
Events      
Averages and records for this station are not official NWS values.
T = Trace of Precipitation, MM = Missing Value Source: NWS Daily Summary

Daily Weather History Graph

Daily Weather History Graph

Search for Another Location

Airport:

Trip Planner

Search our weather history database for the weather conditions in past years. The results will help you decide how hot, cold, wet, or windy it might be!

Date:

Astronomy

Jan. 04, 2013 Rise Set
Actual Time 7:22 AM MST 4:49 PM MST
Civil Twilight 6:51 AM MST 5:19 PM MST
Nautical Twilight 6:18 AM MST 5:53 PM MST
Astronomical Twilight 5:45 AM MST 6:25 PM MST
Moon No Moon Rise 11:06 AM MST (1/4)
Length of Visible Light 10h 27m
Length of Day
9h 26m
Waning Gibbous, 54% of the Moon is Illuminated
Jan 4
Waning Gibbous
Jan 4
Last Quarter
Jan 11
New
Jan 18
First Quarter
Jan 26
Full

Hourly Weather History & Observations

Time (MST) Temp. Windchill Dew Point Humidity Pressure Visibility Wind Dir Wind Speed Gust Speed Precip Events Conditions
12:16 AM 26.6 °F - -4.0 °F 26% 30.17 in 10.0 mi Calm Calm - N/A   Clear
12:36 AM 28.4 °F - -4.0 °F 25% 30.17 in 10.0 mi Calm Calm - N/A   Clear
12:56 AM 30.2 °F - -4.0 °F 23% 30.16 in 10.0 mi Calm Calm - N/A   Clear
1:36 AM 26.6 °F 22.6 °F -4.0 °F 26% 30.16 in 10.0 mi West 3.5 mph - N/A   Clear
2:16 AM 28.4 °F 23.3 °F -4.0 °F 25% 30.17 in 10.0 mi SW 4.6 mph - N/A   Clear
6:50 AM 28.4 °F - -2.2 °F 27% 30.14 in - Calm Calm - N/A   Clear
7:50 AM 28.4 °F - -0.4 °F 29% 30.13 in 60.0 mi Calm Calm - N/A   Clear
8:46 AM 30.2 °F - 6.8 °F 37% 30.13 in 70.0 mi Calm Calm - N/A   Clear
9:47 AM 33.8 °F 30.8 °F 6.8 °F 32% 30.15 in 70.0 mi Variable 3.5 mph - N/A   Clear
10:46 AM 39.2 °F 35.9 °F 6.8 °F 26% 30.14 in 60.0 mi SE 4.6 mph - N/A   Clear
11:47 AM 46.4 °F 44.3 °F -5.8 °F 11% 30.11 in 60.0 mi Variable 4.6 mph - N/A   Clear
12:49 PM 46.4 °F 45.2 °F -4.0 °F 12% 30.05 in 60.0 mi SSE 3.5 mph - N/A   Clear
1:55 PM 46.4 °F 45.2 °F -2.2 °F 13% 30.02 in 50.0 mi Variable 3.5 mph - N/A   Clear
2:50 PM 48.2 °F - 3.2 °F 16% 30.01 in 50.0 mi North 6.9 mph - N/A   Clear
3:45 PM 44.6 °F 40.7 °F 8.6 °F 23% 30.01 in 70.0 mi North 6.9 mph - N/A   Clear
4:46 PM 37.4 °F 32.8 °F 10.4 °F 33% 30.01 in 70.0 mi North 5.8 mph - N/A   Clear
5:55 PM 37.4 °F - 6.8 °F 28% 30.02 in 20.0 mi Calm Calm - N/A   Clear
6:52 PM 32.0 °F 27.5 °F 10.4 °F 41% 30.02 in 50.0 mi West 4.6 mph - N/A   Clear
7:46 PM 33.8 °F - 6.8 °F 32% 30.02 in 50.0 mi Calm Calm - N/A   Clear
8:45 PM 35.6 °F 32.8 °F 6.8 °F 30% 30.02 in 30.0 mi WNW 3.5 mph - N/A   Clear
9:45 PM 32.0 °F 23.6 °F 10.4 °F 41% 30.03 in 30.0 mi WNW 10.4 mph - N/A   Clear
10:16 PM 32.0 °F 24.2 °F 10.4 °F 41% 30.03 in 10.0 mi NNW 9.2 mph - N/A   Clear
10:36 PM 30.2 °F 21.3 °F 12.2 °F 47% 30.04 in 10.0 mi NNW 10.4 mph - N/A   Clear
10:56 PM 32.0 °F 22.5 °F 12.2 °F 44% 30.04 in 10.0 mi NNW 12.7 mph - N/A   Clear
11:16 PM 30.2 °F 20.8 °F 10.4 °F 44% 30.04 in 10.0 mi NNW 11.5 mph - N/A   Clear
11:36 PM 30.2 °F 23.4 °F 10.4 °F 44% 30.06 in 10.0 mi NNW 6.9 mph - N/A   Clear
11:56 PM 28.4 °F 23.3 °F 10.4 °F 47% 30.06 in 10.0 mi NNW 4.6 mph - N/A   Clear